Location: Montamat
(43.4852°N, 0.8444°E)
Time: 07:56:18
(UTC+00:00)

Cosmos 1375 Rocket - Pass Details

Date: 14 May 2026
Orbit: 949 x 1017 km, 65.8° (Epoch: 6 June)

Event Time Altitude Azimuth Distance (km) Brightness Sun altitude
Rises 20:56:20 0° 208° (SSW) 3,675 7.3 -15.7°
Reaches altitude 10° 20:58:52 10° 207° (SSW) 2,740 6.7 -16.0°
Maximum altitude 21:05:19 83° 120° (ESE) 1,013 4.5 -16.8°
Drops below altitude 10° 21:11:54 10° 34° (NE) 2,798 7.1 -17.6°
Sets 21:14:31 0° 34° (NE) 3,757 7.8 -17.9°
